Starlink 1011

decayed
NORAD ID: 44717 Int'l Des: 2019-074 Owner: SPXS Country: US Constellation: starlink
LEOCIRCULAR
グループ

Starlink 1011について

説明を読み込み中...

高度履歴

Altitude vs Time

uPlot chart will show altitude changes over time

軌道要素

1 44717U 19074E 25340.02962256 .10366512 12452-4 28445-3 0 9998
2 44717 53.0288 205.3540 0006732 242.0271 118.0096 16.45144333335219
Epoch: Dec 6, 2025 • Age: 1432 hours

現在のステータス

Position data unavailable
打ち上げ日 Nov 11, 2019
運用期間 6.2 years
落下予定日 Dec 6, 2025
タイプ internet

技術仕様

分類 Payload
質量 260.00 kg
乾燥質量 248.00 kg
総質量 260.00 kg
長さ 0.20 m
直径 2.80 m
スパン 9.00 m
形状 Box + pan
製造者 SPXS
バスタイプ Starlink
フェーズステータス Unknown Transfer Status
所有者/国 SPXS/US

大規模コンステレーション

Loading constellations...